FW3192 Weather Reports


time (UTC)temp
C
wind
direction
speed
KPH
gust
KPH
rain 1hr
cm
rain 24hr
cm
rain mn
cm
humidity
%
barometer
mb
20260510060049 16 210 9.7 16.1 0.00 0.69 0.69 66 1027.4
20260510054549 17 211 6.4 11.3 0.00 0.69 0.69 66 1027.4
20260510053048 17 211 4.8 9.7 0.00 0.69 0.69 64 1027.4
20260510051553 17 210 6.4 9.7 0.00 0.69 0.69 64 1027.4
20260510050047 17 217 8.0 12.9 0.00 0.69 0.69 64 1027.4
20260510044547 17 241 4.8 11.3 0.00 0.69 0.69 63 1027.5
20260510043045 17 254 8.0 12.9 0.00 0.69 0.69 63 1027.5
20260510041539 17 239 4.8 9.7 0.00 0.69 0.69 61 1027.5
20260510040038 18 6 3.2 9.7 0.00 0.69 0.69 60 1027.6
20260510034534 17 358 4.8 9.7 0.00 0.69 0.69 60 1027.7
20260510033034 18 67 0.0 8.0 0.00 0.69 0.69 59 1027.9
20260510031529 17 74 3.2 12.9 0.00 0.69 0.69 61 1028.1
20260510030027 17 62 0.0 8.0 0.00 0.69 0.69 61 1028.2
20260510024508 17 154 3.2 6.4 0.00 0.69 0.69 60 1028.5
20260510023004 17 33 1.6 11.3 0.00 0.69 0.69 63 1028.8
20260510021505 17 151 6.4 11.3 0.00 0.69 0.69 64 1029.0
20260510020058 16 108 6.4 9.7 0.00 0.69 0.69 66 1029.2
20260510014555 16 104 8.0 16.1 0.00 0.69 0.69 67 1029.4
20260510013053 16 91 6.4 11.3 0.00 0.69 0.69 71 1029.4
20260510011549 16 110 8.0 14.5 0.00 0.69 0.69 72 1029.4
20260510010045 15 120 8.0 12.9 0.00 0.69 0.69 77 1029.5
20260510004527 15 100 6.4 11.3 0.13 0.69 0.69 83 1029.5
20260510003024 13 99 4.8 8.0 0.69 0.69 0.69 88 1029.5
20260510001520 13 121 3.2 6.4 0.69 0.69 0.69 91 1029.5
20260510000017 12 90 1.6 4.8 0.69 0.69 0.69 92 1029.7
20260509234529 12 106 1.6 4.8 0.38 0.38 0.38 93 1029.7
20260509233012 12 78 0.0 3.2 0.00 0.00 0.00 93 1029.7
20260509231515 11 75 3.2 4.8 0.00 0.00 0.00 94 1029.7
20260509230005 11 89 1.6 3.2 0.00 0.00 0.00 94 1029.6
20260509224557 11 45 0.0 3.2 0.00 0.00 0.00 94 1029.5
20260509223051 10 85 0.0 1.6 0.00 0.00 0.00 94 1029.4
20260509221544 10 46 0.0 0.0 0.00 0.00 0.00 94 1029.2
20260509220042 10 34 0.0 0.0 0.00 0.00 0.00 94 1029.1
20260509214543 10 92 0.0 0.0 0.00 0.00 0.00 94 1028.8
20260509213042 9 93 0.0 0.0 0.00 0.00 0.00 94 1028.7
20260509211540 9 43 0.0 0.0 0.00 0.00 0.00 94 1028.5
20260509210047 9 33 0.0 0.0 0.00 0.00 0.00 94 1028.5
20260509204526 9 85 0.0 0.0 0.00 0.00 0.00 94 1028.4
20260509203031 8 57 0.0 0.0 0.00 0.00 0.00 94 1028.2
20260509201526 8 44 0.0 0.0 0.00 0.00 0.00 94 1028.1
20260509200025 8 43 0.0 0.0 0.00 0.00 0.00 94 1028.0
20260509194527 8 43 0.0 0.0 0.00 0.00 0.00 94 1027.9
20260509193024 8 43 0.0 0.0 0.00 0.00 0.00 93 1027.8
20260509191525 8 76 0.0 0.0 0.00 0.00 0.00 94 1027.7
20260509190023 8 63 0.0 0.0 0.00 0.00 0.00 94 1027.6
20260509184518 7 33 0.0 0.0 0.00 0.00 0.00 94 1027.4
20260509183005 8 33 0.0 0.0 0.00 0.00 0.00 93 1027.4
20260509181503 9 33 0.0 0.0 0.00 0.00 0.00 94 1027.3
20260509180002 8 33 0.0 0.0 0.00 0.00 0.00 93 1027.3
20260509174501 9 33 0.0 0.0 0.00 0.00 0.00 93 1027.4
20260509173111 10 78 0.0 1.6 0.00 0.00 0.00 94 1027.4
20260509171600 9 133 1.6 3.2 0.00 0.00 0.00 94 1027.4
20260509170058 9 133 1.6 4.8 0.00 0.00 0.00 94 1027.3
20260509164544 9 135 0.0 0.0 0.00 0.00 0.00 93 1027.4
20260509163044 9 135 0.0 1.6 0.00 0.00 0.00 93 1027.5
20260509161552 9 135 0.0 3.2 0.00 0.00 0.00 93 1027.6
20260509160043 10 135 0.0 3.2 0.00 0.00 0.00 94 1027.7
20260509154541 9 25 0.0 0.0 0.00 0.00 0.00 93 1027.7
20260509153041 9 25 0.0 1.6 0.00 0.00 0.00 94 1027.8
20260509151542 10 25 0.0 0.0 0.00 0.00 0.00 93 1027.8
20260509150039 9 25 0.0 0.0 0.00 0.00 0.00 93 1027.8
20260509144520 10 24 0.0 0.0 0.00 0.00 0.00 92 1027.9
20260509143020 10 25 0.0 0.0 0.00 0.00 0.00 92 1027.9
20260509141512 10 25 0.0 0.0 0.00 0.00 0.00 92 1028.0
20260509140002 10 60 0.0 0.0 0.00 0.00 0.00 93 1027.9
20260509134503 10 60 0.0 0.0 0.00 0.00 0.00 92 1028.0
20260509133001 11 60 0.0 0.0 0.00 0.00 0.00 93 1028.0
20260509131505 10 60 0.0 1.6 0.00 0.00 0.00 91 1028.1
20260509130002 11 60 0.0 0.0 0.00 0.00 0.00 91 1028.1
20260509124601 11 78 0.0 1.6 0.00 0.00 0.00 92 1028.1
20260509123100 11 39 0.0 1.6 0.00 0.00 0.00 92 1028.1
20260509121559 11 39 0.0 1.6 0.00 0.00 0.00 91 1028.0
20260509120042 11 39 1.6 4.8 0.00 0.00 0.00 91 1027.9
20260509114540 12 121 0.0 1.6 0.00 0.00 0.00 91 1027.9
20260509113020 12 116 1.6 3.2 0.00 0.00 0.00 90 1027.7
20260509111520 12 115 3.2 4.8 0.00 0.00 0.00 89 1027.7
20260509110018 13 153 0.0 1.6 0.00 0.00 0.00 89 1027.7
20260509104518 13 153 0.0 1.6 0.00 0.00 0.00 87 1027.8
20260509103017 13 153 3.2 4.8 0.00 0.00 0.00 87 1027.8
20260509101527 13 153 3.2 4.8 0.00 0.00 0.00 86 1027.7
20260509100016 13 153 3.2 4.8 0.00 0.00 0.00 86 1027.8
20260509094521 14 159 4.8 6.4 0.00 0.00 0.00 86 1027.7
20260509093002 14 148 4.8 6.4 0.00 0.00 0.00 86 1027.6
20260509091502 14 151 4.8 6.4 0.00 0.00 0.00 84 1027.5
20260509090001 15 155 6.4 9.7 0.00 0.00 0.00 83 1027.5
20260509084608 15 156 6.4 9.7 0.00 0.00 0.00 83 1027.4
20260509083059 16 163 9.7 14.5 0.00 0.00 0.00 82 1027.2
20260509081559 16 191 9.7 16.1 0.00 0.00 0.00 82 1027.1
20260509080059 16 209 9.7 19.3 0.00 0.00 0.00 83 1027.0
20260509074603 16 152 16.1 27.4 0.00 0.00 0.00 82 1027.0
20260509073138 16 215 16.1 22.5 0.00 0.00 0.00 81 1027.0
20260509071546 17 199 17.7 22.5 0.00 0.00 0.00 81 1027.0
20260509070034 16 235 14.5 22.5 0.00 0.00 0.00 81 1027.0
20260509064522 16 233 14.5 22.5 0.00 0.00 0.00 80 1027.0
20260509063113 16 211 12.9 22.5 0.00 0.00 0.00 80 1027.1
20260509061504 16 216 14.5 24.1 0.00 0.00 0.00 80 1026.9